This demonstration page uses our WeatherBlox Daily Observations layout. Learn more.

Left ArrowRight Arrow

Hourly Observations for August 24, 2022

Temp ( °F °C ) Dew Point ( °F °C ) Humidity (%) Winds ( mph kmh ) Pressure ( in mb ) Visibility ( mi km ) Precip ( " mm )
12:15 am 00:15 Clear 65 18.2 58 14.2 77 77 S 9 15 29.97 1015 10 16 0.00 0.00
12:35 am 00:35 Clear 65 18.2 57 14.1 77 77 S 6 9 29.97 1015 10 16 0.00 0.00
12:55 am 00:55 Clear 64 17.5 57 14 80 80 S 7 11 29.99 1016 10 16 0.00 0.00
1:15 am 01:15 Clear 64 17.5 57 14 80 80 S 6 9 29.99 1016 10 16 0.00 0.00
1:35 am 01:35 Clear 63 17.3 57 13.8 80 80 S 6 9 29.99 1016 10 16 0.00 0.00
1:55 am 01:55 Clear 62 16.5 57 13.7 84 84 SSE 6 9 30.01 1016 10 16 0.00 0.00
2:15 am 02:15 Clear 61 16 56 13.6 86 86 S 7 11 30.00 1016 10 16 0.00 0.00
2:35 am 02:35 Clear 62 16.4 56 13.6 84 84 S 8 13 29.99 1016 10 16 0.00 0.00
2:55 am 02:55 Clear 63 17.1 56 13.6 80 80 S 8 13 29.98 1015 10 16 0.00 0.00
3:15 am 03:15 Clear 62 16.9 56 13.5 80 80 S 6 9 29.99 1016 10 16 0.00 0.00
3:35 am 03:35 Clear 60 15.6 56 13.4 87 87 Calm 30.00 1016 10 16 0.00 0.00
3:55 am 03:55 Clear 60 15.6 56 13.3 86 86 SW 6 9 30.01 1016 10 16 0.00 0.00
4:15 am 04:15 Clear 60 15.7 56 13.3 86 86 WSW 5 7 30.01 1016 10 16 0.00 0.00
4:35 am 04:35 Clear 60 15.3 56 13.2 87 87 SW 7 11 30.01 1016 10 16 0.00 0.00
4:55 am 04:55 Clear 60 15.8 56 13.3 85 85 SSW 7 11 29.99 1016 10 16 0.00 0.00
5:15 am 05:15 Clear 61 16.1 56 13.2 83 83 SW 6 9 29.99 1016 10 16 0.00 0.00
5:35 am 05:35 Clear 61 16.2 56 13.1 82 82 SSW 12 19 29.97 1015 10 16 0.00 0.00
5:55 am 05:55 Clear 62 16.7 55 13 79 79 SSW 8 13 29.97 1015 10 16 0.00 0.00
6:15 am 06:15 Clear 62 16.6 55 13 79 79 SSW 5 7 29.99 1015 10 16 0.00 0.00
6:35 am 06:35 Clear 62 16.4 55 12.9 80 80 Calm 29.99 1016 10 16 0.00 0.00
6:55 am 06:55 Clear 60 15.6 55 12.6 82 82 Calm 30.00 1016 10 16 0.00 0.00
7:15 am 07:15 Sunny 58 14.6 54 12.4 87 87 SSE 3 6 30.02 1017 10 16 0.00 0.00
7:35 am 07:35 Sunny 57 13.9 54 12.4 91 91 ESE 3 6 30.04 1017 10 16 0.00 0.00
7:55 am 07:55 Sunny 59 15.2 56 13.4 89 89 ENE 3 6 30.04 1017 7 11 0.00 0.00
8:15 am 08:15 Sunny 62 16.6 57 13.8 84 84 Calm 30.03 1017 10 16 0.00 0.00
8:35 am 08:35 Sunny 64 17.8 57 14.1 79 79 E 3 6 30.02 1016 10 16 0.00 0.00
8:55 am 08:55 Sunny 66 19.1 58 14.6 75 75 Calm 30.01 1016 10 16 0.00 0.00
9:15 am 09:15 Sunny 68 20 58 14.7 72 72 Calm 30.01 1016 10 16 0.00 0.00
9:35 am 09:35 Sunny 69 20.5 59 14.9 70 70 NE 3 6 30.00 1016 10 16 0.00 0.00
9:55 am 09:55 Sunny 70 21.1 59 15.1 69 69 ENE 5 7 30.01 1016 10 16 0.00 0.00
10:15 am 10:15 Sunny 71 21.9 58 14.6 63 63 ENE 6 9 30.00 1016 10 16 0.00 0.00
10:35 am 10:35 Sunny 74 23.1 60 15.7 63 63 ESE 7 11 29.99 1016 10 16 0.00 0.00
10:55 am 10:55 Sunny 74 23.6 59 15.2 59 59 E 6 9 29.99 1016 10 16 0.00 0.00
11:15 am 11:15 Sunny 76 24.5 60 15.4 57 57 SSE 5 7 29.97 1015 10 16 0.00 0.00
11:35 am 11:35 Sunny 78 25.4 60 15.4 54 54 SSE 6 9 29.96 1015 10 16 0.00 0.00
11:55 am 11:55 Sunny 80 26.5 61 16 53 53 S 3 6 29.95 1014 10 16 0.00 0.00
12:15 pm 12:15 Sunny 82 27.7 61 16.2 50 50 S 3 6 29.94 1014 10 16 0.00 0.00
12:35 pm 12:35 Sunny 84 29 62 16.4 47 47 SE 6 9 29.93 1014 10 16 0.00 0.00
12:55 pm 12:55 Sunny 84 28.9 58 14.7 42 42 SSE 3 6 29.93 1014 10 16 0.00 0.00
1:15 pm 13:15 Sunny 85 29.5 57 13.9 39 39 SSE 5 7 29.93 1014 10 16 0.00 0.00
1:35 pm 13:35 Sunny 86 30 52 11.3 32 32 SSE 6 9 29.92 1013 10 16 0.00 0.00
1:55 pm 13:55 Sunny 85 29.6 61 16 44 44 E 5 7 29.92 1013 10 16 0.00 0.00
2:15 pm 14:15 Sunny 88 30.9 60 15.3 39 39 ESE 7 11 29.90 1013 10 16 0.00 0.00
2:35 pm 14:35 Sunny 88 30.9 60 15.5 39 39 E 7 11 29.90 1013 10 16 0.00 0.00
2:55 pm 14:55 Sunny 89 31.4 60 15.4 38 38 E 10 17 29.90 1012 10 16 0.00 0.00
3:15 pm 15:15 Sunny 90 32.1 59 15.1 36 36 ESE 8 13 29.89 1012 10 16 0.00 0.00
3:35 pm 15:35 Sunny 90 32.3 58 14.3 34 34 SE 6 9 29.88 1012 10 16 0.00 0.00
3:55 pm 15:55 Sunny 90 32.1 54 12.1 30 30 SE 7 11 29.88 1012 10 16 0.00 0.00
4:15 pm 16:15 Sunny 89 31.9 54 12.3 30 30 E 5 7 29.87 1012 10 16 0.00 0.00
4:35 pm 16:35 Sunny 90 32 56 13.3 32 32 SE 7 11 29.87 1012 10 16 0.00 0.00
4:50 pm 16:50 Sunny 91 32.5 55 12.9 30 30 SE 6 9 29.86 1011 10 16 0.00 0.00
5:15 pm 17:15 Sunny 90 32.4 56 13.6 32 32 SSE 8 13 29.86 1011 10 16 0.00 0.00
5:35 pm 17:35 Sunny 90 32.1 59 14.9 35 35 SE 7 11 29.86 1011 10 16 0.00 0.00
5:55 pm 17:55 Sunny 90 32.1 57 13.8 33 33 S 7 11 29.85 1011 10 16 0.00 0.00
6:15 pm 18:15 Sunny 89 31.5 57 14.1 35 35 S 6 9 29.86 1011 10 16 0.00 0.00
6:35 pm 18:35 Sunny 88 31.3 60 15.6 39 39 S 5 7 29.86 1011 10 16 0.00 0.00
6:55 pm 18:55 Sunny 87 30.6 60 15.7 41 41 S 3 6 29.86 1011 10 16 0.00 0.00
7:15 pm 19:15 Sunny 86 29.9 62 16.4 44 44 SSE 3 6 29.86 1011 10 16 0.00 0.00
7:35 pm 19:35 Sunny 83 28.6 63 17 50 50 SSE 5 7 29.88 1012 10 16 0.00 0.00
7:55 pm 19:55 Sunny 81 27.1 64 17.9 57 57 SSE 5 7 29.90 1013 10 16 0.00 0.00
8:15 pm 20:15 Sunny 78 25.4 64 17.6 62 62 SE 6 9 29.91 1013 10 16 0.00 0.00
8:35 pm 20:35 Clear 74 23.5 64 17.6 70 70 SE 7 11 29.93 1014 10 16 0.00 0.00
8:55 pm 20:55 Clear 73 22.9 63 17 69 69 SE 7 11 29.93 1014 10 16 0.00 0.00
9:15 pm 21:15 Clear 73 22.6 61 16.3 68 68 SSE 8 13 29.95 1014 10 16 0.00 0.00
9:35 pm 21:35 Clear 72 22.3 60 15.4 65 65 SSE 7 11 29.96 1014 10 16 0.00 0.00
9:55 pm 21:55 Clear 71 21.7 59 15 66 66 SSE 6 9 29.96 1015 10 16 0.00 0.00
10:15 pm 22:15 Clear 70 21.1 58 14.6 66 66 SSE 8 13 29.98 1015 10 16 0.00 0.00
10:35 pm 22:35 Clear 71 21.4 58 14.3 64 64 SSE 8 13 29.98 1015 10 16 0.00 0.00
10:55 pm 22:55 Clear 71 21.6 57 14 62 62 SSE 8 13 29.97 1015 10 16 0.00 0.00
11:15 pm 23:15 Clear 70 21 57 14.1 65 65 SSE 7 11 29.98 1015 10 16 0.00 0.00
11:35 pm 23:35 Clear 68 19.9 58 14.2 70 70 SSE 6 9 29.99 1016 10 16 0.00 0.00
11:55 pm 23:55 Clear 67 19.2 58 14.4 74 74 S 5 7 30.00 1016 10 16 0.00 0.00

Powered by AerisWeather